Weather History for Alexander City, AL

Change the Weather History Date:

Sunday, May 25, 2014

  Actual Average (KAUO) Record (KAUO)
Temperature  
Mean Temperature 78 °F -  
Max Temperature 90 °F - 95 °F (1965)
Min Temperature 65 °F - 43 °F (1979)
Cooling Degree Days 12    
Month to date cooling degree days  
Year to date cooling degree days  
Growing Degree Days 28 (Base 50)    
Moisture  
Dew Point 66 °F    
Average Humidity 65    
Maximum Humidity 85    
Minimum Humidity 30    
Precipitation  
Precipitation 0.00 in - 1.00 in (1965)
Month to date precipitation  
Year to date precipitation  
Sea Level Pressure  
Sea Level Pressure 30.11 in    
Wind  
Wind Speed 1 mph (South)    
Max Wind Speed 7 mph    
Max Gust Speed -    
Visibility 8 miles    
Events Thunderstorm    
T = Trace of Precipitation, MM = Missing Value Source: NWS Daily Summary

Daily Weather History Graph

Daily Weather History Graph

Search for Another Location

Airport:

Trip Planner

Search our weather history database for the weather conditions in past years. The results will help you decide how hot, cold, wet, or windy it might be!

Date:

Astronomy

May. 25, 2014 Rise Set
Actual Time 5:38 AM CDT 7:43 PM CDT
Civil Twilight 5:11 AM CDT 8:10 PM CDT
Nautical Twilight 4:37 AM CDT 8:44 PM CDT
Astronomical Twilight 4:00 AM CDT 9:21 PM CDT
Moon 3:32 AM CDT (5/25) 4:52 PM CDT (5/25)
Length of Visible Light 14h 59m
Length of Day
14h 04m
Waning Crescent, 10% of the Moon is Illuminated
May 25
Waning Crescent
May 28
New
Jun 5
First Quarter
Jun 12
Full
Jun 19
Last Quarter

Hourly Weather History & Observations

Time (CDT) Temp. Heat Index Dew Point Humidity Pressure Visibility Wind Dir Wind Speed Gust Speed Precip Events Conditions
12:15 AM 70.7 °F - 65.7 °F 84% 30.11 in 5.0 mi Calm Calm - N/A   Haze
12:35 AM 71.1 °F - 66.2 °F 85% 30.11 in 5.0 mi Calm Calm - N/A   Haze
12:55 AM 71.8 °F - 66.9 °F 85% 30.11 in 5.0 mi Calm Calm - N/A   Haze
1:15 AM 70.7 °F - 65.7 °F 84% 30.11 in 7.0 mi Calm Calm - N/A   Clear
1:35 AM 70.7 °F - 65.7 °F 84% 30.10 in 5.0 mi Calm Calm - N/A   Haze
1:55 AM 70.7 °F - 65.5 °F 83% 30.10 in 7.0 mi Calm Calm - N/A   Clear
2:15 AM 70.7 °F - 65.5 °F 83% 30.09 in 7.0 mi Calm Calm - N/A   Clear
2:35 AM 70.7 °F - 65.5 °F 83% 30.09 in 5.0 mi Calm Calm - N/A   Haze
2:55 AM 70.7 °F - 65.3 °F 83% 30.09 in 7.0 mi Calm Calm - N/A   Clear
3:15 AM 70.7 °F - 65.7 °F 84% 30.09 in 5.0 mi Calm Calm - N/A   Haze
3:35 AM 70.7 °F - 65.7 °F 84% 30.09 in 7.0 mi Calm Calm - N/A   Clear
3:55 AM 70.7 °F - 65.5 °F 83% 30.09 in 7.0 mi Calm Calm - N/A   Clear
4:15 AM 70.7 °F - 65.5 °F 83% 30.09 in 7.0 mi Calm Calm - N/A   Clear
4:35 AM 70.7 °F - 65.7 °F 84% 30.09 in 7.0 mi Calm Calm - N/A   Clear
4:55 AM 70.3 °F - 65.3 °F 84% 30.09 in 4.0 mi Calm Calm - N/A   Haze
5:15 AM 65.5 °F - 60.3 °F 83% 30.10 in 5.0 mi Calm Calm - N/A   Haze
5:35 AM 68.0 °F - 63.1 °F 84% 30.11 in 2.5 mi Calm Calm - N/A   Haze
5:55 AM 68.0 °F - 63.1 °F 84% 30.11 in 5.0 mi Calm Calm - N/A   Haze
6:15 AM 70.7 °F - 65.3 °F 83% 30.12 in 7.0 mi Calm Calm - N/A   Clear
6:35 AM 70.7 °F - 65.3 °F 83% 30.13 in 5.0 mi Calm Calm - N/A   Haze
6:55 AM 71.1 °F - 65.7 °F 83% 30.13 in 5.0 mi Calm Calm - N/A   Haze
7:15 AM 75.6 °F - 68.9 °F 80% 30.13 in 7.0 mi Calm Calm - N/A   Clear
7:35 AM 75.6 °F - 67.5 °F 76% 30.14 in 7.0 mi Calm Calm - N/A   Clear
7:55 AM 77.2 °F - 67.3 °F 71% 30.14 in 10.0 mi Calm Calm - N/A   Clear
8:15 AM 78.1 °F - 66.7 °F 68% 30.15 in 10.0 mi ESE 3.5 mph - N/A   Clear
8:35 AM 80.6 °F 83.2 °F 68.0 °F 65% 30.16 in 10.0 mi Calm Calm - N/A   Clear
9:15 AM 82.0 °F 83.9 °F 65.3 °F 57% 30.16 in 10.0 mi Calm Calm - N/A   Clear
9:55 AM 83.7 °F 86.2 °F 66.9 °F 57% 30.16 in 10.0 mi Calm Calm - N/A   Clear
10:15 AM 83.8 °F 85.3 °F 64.8 °F 52% 30.16 in 10.0 mi Calm Calm - N/A   Clear
10:35 AM 88.2 °F 89.9 °F 64.8 °F 46% 30.15 in 10.0 mi SSE 3.5 mph - N/A   Clear
10:55 AM 90.7 °F 92.8 °F 65.7 °F 43% 30.16 in 10.0 mi Calm Calm - N/A   Clear
11:15 AM 90.5 °F 92.9 °F 65.8 °F 44% 30.15 in 10.0 mi Calm Calm - N/A   Clear
11:55 AM 90.7 °F 94.1 °F 67.1 °F 46% 30.14 in 10.0 mi WSW 4.6 mph - N/A   Scattered Clouds
12:15 PM 90.7 °F 91.7 °F 63.5 °F 40% 30.14 in 10.0 mi SE 5.8 mph - N/A   Scattered Clouds
12:35 PM 90.7 °F 91.7 °F 63.3 °F 40% 30.14 in 10.0 mi South 6.9 mph - N/A   Scattered Clouds
12:55 PM 90.7 °F 92.1 °F 64.0 °F 41% 30.13 in 10.0 mi West 6.9 mph - N/A   Scattered Clouds
1:15 PM 90.7 °F 91.0 °F 62.1 °F 38% 30.13 in 10.0 mi SSW 4.6 mph - N/A   Clear
1:55 PM 90.7 °F 91.3 °F 62.6 °F 39% 30.13 in 10.0 mi ESE 5.8 mph - N/A   Scattered Clouds
2:15 PM 90.7 °F 91.7 °F 63.5 °F 40% 30.12 in 10.0 mi Calm Calm - N/A   Clear
2:35 PM 90.9 °F 90.3 °F 60.1 °F 35% 30.12 in 10.0 mi Calm Calm - N/A   Clear
2:55 PM 90.7 °F 90.4 °F 60.3 °F 36% 30.11 in 10.0 mi WSW 3.5 mph - N/A   Clear
3:15 PM 90.7 °F 90.4 °F 60.1 °F 36% 30.11 in 10.0 mi South 3.5 mph - N/A   Clear
3:35 PM 90.7 °F 92.1 °F 63.7 °F 41% 30.10 in 10.0 mi South 3.5 mph - N/A   Scattered Clouds
3:55 PM 90.7 °F 91.3 °F 62.4 °F 39% 30.10 in 10.0 mi South 4.6 mph - N/A   Clear
4:15 PM 90.7 °F 90.4 °F 60.4 °F 36% 30.09 in 10.0 mi SW 5.8 mph - N/A   Clear
4:35 PM 90.7 °F 89.5 °F 58.3 °F 33% 30.09 in 10.0 mi SW 5.8 mph - N/A   Clear
4:55 PM 90.7 °F 89.5 °F 58.3 °F 33% 30.08 in 10.0 mi SSW 3.5 mph - N/A   Clear
5:15 PM 90.7 °F 88.7 °F 55.4 °F 30% 30.08 in 10.0 mi Calm Calm - N/A   Clear
5:35 PM 90.7 °F 89.5 °F 58.3 °F 33% 30.07 in 10.0 mi Calm Calm - N/A   Clear
5:55 PM 90.7 °F 89.2 °F 56.8 °F 32% 30.07 in 10.0 mi Calm Calm - N/A Thunderstorm Clear
6:15 PM 90.7 °F 92.8 °F 65.1 °F 43% 30.08 in 10.0 mi Calm Calm - N/A   Clear
6:35 PM 84.4 °F 87.6 °F 68.2 °F 58% 30.09 in 10.0 mi Calm Calm - N/A   Clear
6:55 PM 83.3 °F 86.6 °F 68.4 °F 61% 30.09 in 10.0 mi Calm Calm - N/A   Clear
7:15 PM 82.4 °F 87.0 °F 71.2 °F 69% 30.09 in 10.0 mi Calm Calm - N/A   Clear
7:35 PM 80.6 °F 83.9 °F 69.8 °F 70% 30.09 in 10.0 mi Calm Calm - N/A   Clear
7:55 PM 80.6 °F 83.9 °F 69.8 °F 70% 30.10 in 10.0 mi Calm Calm - N/A   Clear
8:15 PM 80.2 °F 84.2 °F 72.0 °F 76% 30.11 in 10.0 mi Calm Calm - N/A   Clear
8:35 PM 78.1 °F - 69.6 °F 75% 30.12 in 10.0 mi Calm Calm - N/A   Clear
8:55 PM 78.1 °F - 70.7 °F 78% 30.11 in 10.0 mi Calm Calm - N/A   Clear
9:15 PM 77.4 °F - 71.1 °F 81% 30.11 in 10.0 mi Calm Calm - N/A   Clear
9:35 PM 75.6 °F - 69.8 °F 82% 30.12 in 7.0 mi Calm Calm - N/A   Clear
9:55 PM 75.6 °F - 70.0 °F 83% 30.13 in 7.0 mi Calm Calm - N/A   Clear
10:15 PM 75.6 °F - 69.8 °F 82% 30.13 in 7.0 mi Calm Calm - N/A   Clear
10:35 PM 75.6 °F - 70.0 °F 83% 30.13 in 7.0 mi Calm Calm - N/A   Clear
10:55 PM 75.6 °F - 69.8 °F 82% 30.13 in 10.0 mi Calm Calm - N/A   Clear
11:15 PM 75.6 °F - 70.2 °F 83% 30.13 in 5.0 mi Calm Calm - N/A   Haze
11:35 PM 75.6 °F - 70.3 °F 84% 30.13 in 7.0 mi Calm Calm - N/A   Clear
11:55 PM 75.0 °F - 69.8 °F 84% 30.13 in 7.0 mi Calm Calm - N/A   Clear